Regional Weather Roundup
Issued by NWS

Home | Current Version | Previous Version | Graphics & Text | Print | Product List | Glossary On
Versions: 1 2 3 4 5 6 7 8 9 10 11 12 13 14 15 16 17 18 19 20 21 22 23 24 25 26 27 28 29 30 31 32 33 34 35 36 37 38 39 40 41 42 43 44 45 46 47 48 49 50
095
ASUS45 KCYS 221410
RWRWY

WYOMING REGIONAL WEATHER ROUNDUP
NATIONAL WEATHER SERVICE CHEYENNE WY
800 AM MDT MON MAY 22 2017

NOTE:  "FAIR" INDICATES FEW OR NO CLOUDS BELOW 12,000 FEET
WITH NO SIGNIFICANT WEATHER AND/OR OBSTRUCTIONS TO VISIBILITY.

WYZ001-221500-
YELLOWSTONE NATIONAL PARK

CITY           SKY/WX    TMP DP  RH WIND       PRES   REMARKS
LK YELLOWSTONE   N/A     35  29  78 CALM      30.35S
W YELLOWSTONE  NOT AVBL

$$
WYZ002>013-054>058-071-098>099-221500-
NORTHERN WYOMING

CITY           SKY/WX    TMP DP  RH WIND       PRES   REMARKS
JACKSON        MOSUNNY   37  28  70 CALM      30.33R
CODY           PTSUNNY   52  36  54 N14G25    30.22R
GREYBULL       CLOUDY    50  38  63 SE3       30.16R
WORLAND        FAIR      48  43  82 S3        30.15R
SHERIDAN       LGT RAIN  50  43  77 NW5       30.15R
BUFFALO        LGT RAIN  47  40  76 NW21G28   30.16R
GILLETTE       CLOUDY    49  43  80 W15       30.09R
HULETT         PTSUNNY   50  43  76 W7        30.08S
NEWCASTLE      FAIR      46  41  81 N10       30.08F

$$
WYZ014>020-022>026-101>103-221500-
CENTRAL WYOMING

CITY           SKY/WX    TMP DP  RH WIND       PRES   REMARKS
BIG PINEY      FAIR      40  35  83 CALM      30.32S
PINEDALE       FAIR      37  32  81 NW8       30.32S WCI  31
DUBOIS         FAIR      37  27  65 NW14      30.28R WCI  29
LANDER         FAIR      47  37  68 S3        30.19F
RIVERTON       FAIR      49  38  65 NW12      30.20S
CASPER         CLOUDY    46  36  68 W8        30.16S
DOUGLAS        PTSUNNY   46  39  76 NW12      30.13F

$$
WYZ021-027>030-104>119-221500-
SOUTHERN WYOMING

CITY           SKY/WX    TMP DP  RH WIND       PRES   REMARKS
EVANSTON       FAIR      42  40  92 SW5       30.34R
KEMMERER         N/A     39  34  81 NW8       30.33R WCI  34
ROCK SPRINGS   FAIR      42  37  82 CALM      30.30R
DIXON            N/A     38  33  82 E7        30.32S WCI  33
RAWLINS        FAIR      40  34  79 SW6       30.26S
SARATOGA       FAIR      37  37 100 SE7       30.28S WCI  32
LARAMIE        FAIR      39  34  82 CALM      30.22F
CHEYENNE       FAIR      49  33  54 NW15G21   30.17F
TORRINGTON     FAIR      48  42  80 W6        30.09F

$$




USA.gov is the U.S. government's official web portal to all federal, state and local government web resources and services.